Location: Recife
(8.0585°S, 34.8848°W)
Time: 21:23:59
(UTC-03:00)

Explorer 11/Cluster Stage 4 - Pass Details

Date: 23 April 2026
Orbit: 463 x 1174 km, 28.8° (Epoch: 16 May)

Event Time Altitude Azimuth Distance (km) Brightness Sun altitude
Rises 03:39:13 0° 264° (W) 2,476 - -25.7°
Reaches altitude 10° 03:41:44 10° 282° (WNW) 1,621 - -25.1°
Maximum altitude 03:44:29 20° 331° (NNW) 1,174 - -24.4°
Exits shadow 03:45:49 17° 359° (N) 1,323 7.8 -24.1°
Drops below altitude 10° 03:47:26 10° 20° (NNE) 1,746 8.7 -23.7°
Sets 03:50:17 0° 37° (NE) 2,737 10.1 -23.0°
